User: anonymous   Login
Location: Mascot Post Office (historical)
(40.2645°N, 99.5462°W)
Time: 22:58:54
(UTC+00:00)
Language:

BREEZE M DEB (TANK) - Orbit

View from above orbital plane
View from above orbital plane
View from above satellite
View from above satellite

Ground track
Ground track

The orbit data is extracted from the following two-line orbital elements,

1 33454U 08063B   20272.19343121 +.00002161 +00000-0 +56684-3 0  9995
2 33454 049.4222 154.1334 5421028 056.4355 344.1883 04.91518080209137
Epoch (UTC): 28 September 2020 04:38:32
Eccentricity: 0.5421028
inclination: 49.4222°
perigee height: 312 km
apogee height: 16155 km
right ascension of ascending node: 154.1334°
argument of perigee: 56.4355°
revolutions per day: 4.91518080
mean anomaly at epoch: 344.1883°
orbit number at epoch: 20913

The dashed part of the orbit path shows where the satellite is in the earth's shadow,  

DLR